DW4776 Weather Reports


Display with metric or nautical units.
time (UTC)temp
F
wind
direction
speed
MPH
gust
MPH
rain 1hr
in
rain 24hr
in
rain mn
in
humidity
%
barometer
mb
20260902073051 63 94 2.0 4.0 0.00 0.00 0.00 44 1008.8
20260902071544 64 252 0.0 3.0 0.00 0.00 0.00 43 1008.8
20260902070046 64 252 1.0 3.0 0.00 0.00 0.00 43 1008.7
20260902064549 65 252 2.0 5.0 0.00 0.00 0.00 41 1008.9
20260902063050 67 252 1.0 11.0 0.00 0.00 0.00 39 1008.9
20260902060044 69 176 7.0 15.0 0.00 0.00 0.00 37 1008.9
20260902054549 69 166 9.0 18.0 0.00 0.00 0.00 37 1008.8
20260902053046 69 144 10.0 17.0 0.00 0.00 0.00 36 1008.9
20260902051545 69 133 10.0 17.0 0.00 0.00 0.00 36 1008.9
20260902050050 69 106 11.0 19.0 0.00 0.00 0.00 37 1009.0
20260902044544 70 122 8.0 16.0 0.00 0.00 0.00 36 1009.1
20260902043042 70 104 7.0 14.0 0.00 0.00 0.00 36 1009.1
20260902041544 70 95 6.0 13.0 0.00 0.00 0.00 36 1009.1
20260902040046 70 109 7.0 14.0 0.00 0.00 0.00 36 1009.2
20260902034541 70 138 7.0 14.0 0.00 0.00 0.00 36 1009.3
20260902033045 69 112 8.0 12.0 0.00 0.00 0.00 35 1009.3
20260902031548 69 110 7.0 12.0 0.00 0.00 0.00 35 1009.4
20260902030042 65 105 4.0 8.0 0.00 0.00 0.00 36 1009.4
20260902024543 67 62 2.0 4.0 0.00 0.00 0.00 34 1009.3
20260902023052 70 60 3.0 5.0 0.00 0.00 0.00 30 1009.4
20260902021544 75 105 1.0 6.0 0.00 0.00 0.00 25 1009.3
20260902020043 77 145 1.0 4.0 0.00 0.00 0.00 24 1009.3
20260902014548 78 134 1.0 5.0 0.00 0.00 0.00 23 1009.3
20260902013043 79 101 2.0 6.0 0.00 0.00 0.00 22 1009.1
20260902011550 80 116 4.0 9.0 0.00 0.00 0.00 22 1009.3
20260902010050 80 107 4.0 11.0 0.00 0.00 0.00 22 1009.3
20260902004544 81 127 7.0 13.0 0.00 0.00 0.00 21 1009.1
20260902003048 81 121 7.0 13.0 0.00 0.00 0.00 21 1009.1
20260902001544 82 110 5.0 11.0 0.00 0.00 0.00 21 1009.4
20260902000047 82 89 4.0 9.0 0.00 0.00 0.00 21 1009.3
20260901234543 82 171 3.0 13.0 0.00 0.00 0.00 21 1009.4
20260901233042 83 186 10.0 14.0 0.00 0.00 0.00 20 1009.5
20260901231541 82 170 3.0 14.0 0.00 0.00 0.00 22 1009.6
20260901230043 82 182 10.0 17.0 0.00 0.00 0.00 21 1009.8
20260901224544 82 220 10.0 17.0 0.00 0.00 0.00 20 1010.0
20260901223046 82 138 8.0 19.0 0.00 0.00 0.00 21 1010.1
20260901221555 82 173 11.0 16.0 0.00 0.00 0.00 21 1010.2
20260901220044 82 127 7.0 14.0 0.00 0.00 0.00 21 1010.4
20260901214557 82 171 4.0 12.0 0.00 0.00 0.00 21 1010.6
20260901213039 81 168 3.0 14.0 0.00 0.00 0.00 21 1010.8
20260901211541 81 171 7.0 17.0 0.00 0.00 0.00 22 1011.1
20260901210054 81 182 12.0 16.0 0.00 0.00 0.00 21 1011.2
20260901204544 81 133 8.0 15.0 0.00 0.00 0.00 22 1011.2
20260901203047 81 164 10.0 17.0 0.00 0.00 0.00 23 1011.4
20260901201544 81 154 4.0 13.0 0.00 0.00 0.00 23 1011.5
20260901200044 80 77 6.0 12.0 0.00 0.00 0.00 24 1011.7
20260901194551 79 129 9.0 19.0 0.00 0.00 0.00 23 1011.9
20260901193047 79 139 9.0 16.0 0.00 0.00 0.00 24 1012.0
20260901191550 79 148 9.0 19.0 0.00 0.00 0.00 25 1012.2
20260901190050 78 103 5.0 17.0 0.00 0.00 0.00 27 1012.4
20260901184559 77 94 8.0 16.0 0.00 0.00 0.00 27 1012.5
20260901183102 76 152 6.0 18.0 0.00 0.00 0.00 29 1012.8
20260901181546 75 117 6.0 15.0 0.00 0.00 0.00 30 1013.0
20260901180045 75 145 6.0 14.0 0.00 0.00 0.00 30 1013.1
20260901174544 74 116 5.0 12.0 0.00 0.00 0.00 31 1013.3
20260901173048 73 170 6.0 11.0 0.00 0.00 0.00 32 1013.4
20260901171544 73 0 4.0 12.0 0.00 0.00 0.00 33 1013.6
20260901170045 71 96 6.0 12.0 0.00 0.00 0.00 35 1013.7
20260901164543 71 189 5.0 13.0 0.00 0.00 0.00 36 1013.7
20260901163056 70 152 4.0 14.0 0.00 0.00 0.00 37 1013.8
20260901161548 69 175 6.0 14.0 0.00 0.00 0.00 38 1013.9
20260901160044 68 100 5.0 12.0 0.00 0.00 0.00 40 1014.0
20260901154608 67 176 8.0 14.0 0.00 0.00 0.00 41 1014.0
20260901153052 66 127 3.0 11.0 0.00 0.00 0.00 43 1014.0
20260901151544 65 134 3.0 11.0 0.00 0.00 0.00 45 1014.0
20260901150054 62 56 3.0 7.0 0.00 0.00 0.00 51 1014.1
20260901144543 58 75 1.0 3.0 0.00 0.00 0.00 63 1014.1
20260901143046 54 75 1.0 3.0 0.00 0.00 0.00 67 1014.0
20260901141557 52 75 1.0 4.0 0.00 0.00 0.00 70 1013.9
20260901140051 50 75 1.0 3.0 0.00 0.00 0.00 73 1013.6
20260901134544 49 75 2.0 4.0 0.00 0.00 0.00 76 1013.6
20260901133050 48 70 3.0 5.0 0.00 0.00 0.00 74 1013.5
20260901131545 48 70 4.0 5.0 0.00 0.00 0.00 73 1013.6
20260901130043 49 70 2.0 3.0 0.00 0.00 0.00 71 1013.6
20260901124548 49 70 1.0 3.0 0.00 0.00 0.00 70 1013.6
20260901123049 50 0 0.0 2.0 0.00 0.00 0.00 68 1013.7
20260901121544 50 70 0.0 3.0 0.00 0.00 0.00 68 1013.7
20260901120051 52 340 0.0 2.0 0.00 0.00 0.00 65 1013.6
20260901114545 53 0 0.0 2.0 0.00 0.00 0.00 63 1013.7
20260901113055 53 0 0.0 2.0 0.00 0.00 0.00 62 1013.9
20260901111546 54 0 2.0 4.0 0.00 0.00 0.00 62 1013.9
20260901110050 54 334 2.0 7.0 0.00 0.00 0.00 60 1013.7
20260901104542 55 0 0.0 3.0 0.00 0.00 0.00 58 1013.9
20260901103059 56 62 0.0 2.0 0.00 0.00 0.00 58 1014.0
20260901101545 56 0 0.0 3.0 0.00 0.00 0.00 57 1013.9
20260901100046 57 62 2.0 4.0 0.00 0.00 0.00 56 1014.2
20260901094542 58 70 2.0 9.0 0.00 0.00 0.00 53 1014.1
20260901093051 59 193 1.0 6.0 0.00 0.00 0.00 52 1014.0
20260901091547 59 277 1.0 4.0 0.00 0.00 0.00 52 1014.1
20260901090050 58 169 3.0 6.0 0.00 0.00 0.00 53 1014.1
20260901084542 58 297 1.0 4.0 0.00 0.00 0.00 53 1014.1
20260901083046 58 297 2.0 4.0 0.00 0.00 0.00 52 1014.1
20260901081545 59 297 3.0 4.0 0.00 0.00 0.00 50 1014.2
20260901080056 60 249 2.0 5.0 0.00 0.00 0.00 49 1014.4
20260901074542 61 271 3.0 4.0 0.00 0.00 0.00 47 1014.5